LFRB

Brest/Bretagne Airport

Airport
ICAO code
LFRB
IATA Code
BES
Summary
ICAO Region
EUR
ICAO Territory
Location

Guipavas, Bretagne

Serving
Brest
Elevation
325 ft
Coordinates
48° 26' 50" N , 4° 24' 57" W
KCC
Metar
LFRB 220030Z AUTO 19011KT 3500 BR OVC002 11/11 Q1000 TEMPO 1200 RADZ BECMG 23015G25KT

Description

Brest Bretagne Airport, formerly known as Brest Guipavas Airport, is an airport serving the French city of Brest. It is located in the commune of Guipavas and 10.2km northeast of Brest, within the département of Finistère.

Climatology

Temperate Marine climate/Oceanic climate (Köppen climate classification Cfb). Moderately cool summer and comparatively warm winter with a temperature range of only 14°C. Prevailing south-westerly winds from the Atlantic Ocean.

Runways

Designator Length Width Surface Rops
07L/25R 700 18 ASP Yes/Yes
07R/25L 3100 45 ASP Yes/Yes

Airport map

Aerial View

SKYbrary Partners:

Safety knowledge contributed by: